User: anonymous   Login
Location: Ústí nad Labem
(50.6611°N, 14.0531°E)
Time: 01:37:13
(UTC+02:00)
Language:

A-11 Canister half - Orbit

View from above orbital plane
View from above orbital plane
View from above satellite
View from above satellite

Ground track
Ground track

The orbit data is extracted from the following two-line orbital elements,

1 00053U 60009E   24107.16195544  .00000084  00000-0  16475-2 0  9999
2 00053  47.2766 265.3680 0098307 254.0839 104.9098 12.17328493838943
Epoch (UTC): 16 April 2024 03:53:12
Eccentricity: 0.0098307
inclination: 47.2766°
perigee height: 1526 km
apogee height: 1682 km
right ascension of ascending node: 265.3680°
argument of perigee: 254.0839°
revolutions per day: 12.17328493
mean anomaly at epoch: 104.9098°
orbit number at epoch: 83894

The dashed part of the orbit path shows where the satellite is in the earth's shadow,  

DLR